GFSCGP_925_rhum_072.txt.gz
RH
20 24 25 20 19 17 15 16 16 22 17 17 16 20 23 20 21 29 32 32 35 38 45 49 53 74 79 91 87 84 77 74 76 77 76 66 62 55 55 59 65 72 80 84
22 26 18 16 15 14 14 17 16 16 15 16 15 21 16 18 25 28 33 33 38 38 41 44 47 56 64 68 71 75 73 80 88 82 73 62 59 59 56 59 70 79 88 84
25 20 17 17 18 18 17 19 19 21 16 17 20 21 16 16 21 23 29 35 41 39 44 48 48 50 59 62 60 58 67 76 76 72 62 51 48 48 48 64 76 74 81 85
20 16 17 18 20 17 22 16 17 17 20 27 25 35 20 16 19 23 27 39 35 36 43 46 47 50 51 53 54 55 51 60 63 58 52 50 49 49 50 64 79 80 77 84
20 18 18 21 19 16 20 16 20 20 22 23 29 34 19 16 19 21 22 31 35 38 40 44 43 49 51 51 56 52 48 47 48 50 53 48 49 49 46 50 78 79 76 82
16 12 13 15 16 15 15 18 20 21 24 36 23 23 24 25 16 15 18 22 28 40 39 33 37 42 46 49 49 54 53 50 48 55 48 56 53 52 51 59 70 83 76 80
17 16 12 13 18 15 19 24 38 47 43 42 30 24 19 26 16 12 14 20 24 27 33 34 35 36 37 45 50 52 55 52 50 59 53 52 59 53 55 55 67 83 90 86
24 25 15 15 18 20 21 24 43 79 56 38 31 24 12 12 11 11 12 13 18 21 27 28 29 35 36 39 47 51 52 53 50 52 61 64 57 64 58 58 67 79 86 88
24 21 13 15 16 17 23 28 20 34 39 50 29 20 12 11 11 11 12 13 17 21 22 24 27 27 32 36 45 52 52 51 50 52 56 62 67 68 67 67 71 80 83 86
20 26 15 14 15 16 18 18 30 29 47 47 24 22 34 18 14 13 12 15 18 19 21 22 22 28 27 32 39 49 52 50 51 50 58 63 68 72 72 75 81 85 85 88
18 22 21 14 18 20 20 23 28 24 28 44 48 31 21 17 12 14 13 14 14 19 22 22 22 21 28 30 33 46 51 51 49 50 54 63 71 71 79 84 92 89 86 94
18 21 29 19 15 15 17 22 25 38 32 34 55 38 15 17 14 14 14 14 15 15 18 23 23 22 22 28 33 41 48 49 49 46 55 66 72 74 82 90 96 93 97 98
20 25 33 27 20 19 22 18 20 24 27 35 53 37 17 13 14 14 15 15 14 18 16 21 26 28 26 27 31 35 46 49 50 50 55 71 92 88 92 99 100 100 100 100
40 24 27 36 28 24 25 19 18 24 44 38 34 25 20 15 16 16 17 20 17 16 15 18 25 29 30 32 34 40 56 62 77 87 95 98 100 100 100 100 100 100 100 99
37 36 25 21 18 18 20 22 21 22 22 32 32 23 18 15 13 15 14 17 23 23 14 15 18 31 35 44 79 83 88 91 94 99 99 100 100 99 99 100 99 100 98 98
30 43 29 31 20 19 20 18 19 18 17 17 19 20 14 12 11 14 13 13 16 17 24 20 16 35 46 78 83 91 96 99 100 100 100 100 100 100 100 100 100 100 100 98
39 40 37 44 26 22 34 23 17 15 15 16 21 17 14 15 14 14 14 15 16 22 30 30 26 50 64 79 84 90 98 99 99 99 100 99 99 100 100 100 100 99 97 92
48 44 40 55 60 55 26 18 16 18 16 16 15 14 14 14 13 14 18 17 24 30 35 36 48 56 72 81 86 93 95 98 99 99 100 100 100 100 99 97 93 86 80 79
39 51 76 61 54 34 24 21 22 24 24 18 16 15 14 13 19 22 20 23 26 36 41 46 49 55 72 80 84 85 88 89 88 90 92 90 89 87 86 82 76 78 85 84
37 43 67 71 59 63 36 21 20 22 36 18 17 20 18 19 35 27 27 28 37 38 42 48 53 57 61 68 72 71 73 76 80 79 79 81 84 85 78 79 85 83 81 68
64 68 70 72 74 48 24 22 24 42 40 27 20 19 21 22 30 33 34 39 39 40 43 48 51 54 56 57 59 60 64 69 73 76 77 80 77 77 78 76 64 52 45 51
69 69 81 68 73 66 25 28 32 32 30 27 24 22 26 45 41 40 40 41 39 40 43 47 49 50 54 56 58 61 63 68 68 70 70 71 60 54 53 49 48 47 52 54
84 82 63 51 56 40 37 33 36 35 33 34 32 28 27 45 41 40 42 41 39 40 44 45 47 54 56 56 55 54 60 65 62 59 53 50 47 48 48 49 43 36 36 42
39 42 54 45 43 46 37 33 32 30 35 29 27 30 28 42 40 41 40 39 39 40 41 44 50 52 52 50 50 54 54 55 56 54 51 45 40 34 30 31 31 39 47 52
34 36 43 42 33 34 34 30 38 37 34 33 30 28 32 39 40 39 38 39 38 40 41 45 50 51 49 48 51 52 54 52 51 48 42 38 35 35 34 42 45 58 64 55
25 30 46 61 36 41 38 45 45 45 42 36 36 35 32 32 38 36 37 37 38 40 42 45 46 47 50 51 50 49 48 46 43 39 45 47 43 36 33 48 55 45 47 48

GFSCGP_925_rhum_075.txt.gz
RH
29 36 39 33 28 25 26 24 22 19 18 23 26 25 37 59 66 77 73 66 80 82 82 90 93 100 100 94 100 95 85 71 66 65 67 66 70 61 54 58 62 59 58 67
33 36 29 25 22 22 22 20 22 19 22 24 18 22 25 34 61 55 64 57 66 73 82 83 91 96 99 100 94 91 82 68 72 72 77 79 69 65 58 63 59 60 66 66
34 30 24 24 23 23 20 22 24 25 20 21 25 29 24 26 33 38 41 44 53 62 73 77 84 90 92 96 88 84 73 68 65 67 64 65 70 66 62 61 65 66 67 68
27 24 25 24 25 22 25 21 21 25 27 34 27 48 29 24 32 33 40 47 47 55 55 66 74 79 83 84 80 73 73 72 63 69 85 80 69 63 61 55 57 65 70 73
25 27 26 27 23 20 24 23 22 25 32 32 34 46 41 24 30 34 46 50 48 49 53 54 61 67 62 66 70 73 73 76 86 87 81 77 66 59 56 57 62 68 74 76
22 17 20 21 18 20 19 22 26 26 32 51 34 41 38 27 22 26 39 44 48 45 52 51 51 59 56 62 64 65 64 68 79 78 75 67 58 52 49 54 66 70 72 75
25 22 18 16 20 21 21 28 54 67 61 64 34 40 36 29 26 21 28 44 40 41 47 51 52 53 56 59 59 58 60 62 70 70 68 63 53 49 48 48 74 85 84 84
34 35 21 16 19 25 26 33 67 70 75 60 43 42 27 25 21 17 17 32 39 41 41 48 49 52 53 54 57 58 59 59 52 57 60 53 56 50 50 51 66 72 74 81
31 29 16 15 17 21 30 36 30 56 50 66 53 32 22 18 15 16 15 17 36 44 45 40 45 47 51 53 54 55 60 57 56 55 59 57 59 61 55 51 62 66 76 75
27 35 20 17 18 20 23 25 38 41 70 72 44 36 41 25 20 17 15 24 23 24 33 40 38 41 42 46 51 56 55 60 58 54 60 66 61 64 66 61 57 71 72 80
22 29 30 21 24 25 28 28 28 36 51 59 57 51 30 27 23 16 19 23 24 26 26 26 35 35 40 39 44 53 57 55 58 57 55 63 69 66 66 67 78 88 93 92
25 36 42 32 22 18 20 29 33 62 48 51 62 54 20 19 15 19 18 18 23 31 30 27 26 34 42 43 46 51 59 58 54 57 57 55 60 65 70 86 94 92 94 93
33 43 58 41 27 20 23 25 26 33 43 48 73 59 23 23 17 18 18 17 20 23 30 32 31 29 40 44 46 51 59 60 54 70 61 66 71 74 83 96 97 98 96 95
38 49 50 52 37 28 30 25 25 32 53 47 50 39 31 27 22 19 19 23 22 21 19 35 37 36 36 63 72 67 74 76 76 69 77 83 96 95 100 100 100 100 98 99
41 51 42 35 25 24 28 29 28 28 30 46 39 36 32 24 20 20 20 25 23 22 21 23 38 47 80 88 93 92 99 99 97 99 100 100 100 100 100 100 100 100 100 100
39 48 40 44 34 24 26 27 26 25 25 25 27 34 26 21 16 18 18 27 27 24 30 31 40 69 77 88 96 98 99 100 100 100 100 100 99 99 99 100 100 100 100 100
41 50 50 52 40 34 46 33 25 25 24 25 30 26 20 19 17 16 19 18 24 35 36 41 66 81 85 92 98 100 100 100 99 99 100 100 99 100 100 99 99 99 98 97
56 60 65 74 58 58 33 21 22 26 22 20 19 19 18 18 16 23 25 29 39 42 41 67 82 87 91 96 98 99 100 100 100 100 100 100 100 100 100 100 99 98 94 90
50 62 78 68 62 46 36 26 25 26 30 21 20 20 19 17 24 25 27 28 40 48 58 74 84 88 92 92 93 96 99 98 99 100 100 100 99 99 99 98 97 92 82 78
51 60 79 86 75 71 44 33 23 22 43 22 20 23 24 24 39 37 33 48 54 59 61 70 86 89 90 90 90 93 92 92 94 94 95 96 95 94 94 90 81 77 79 84
79 86 86 92 98 78 37 27 26 41 51 24 25 25 27 30 42 38 49 51 53 57 61 62 76 82 86 83 83 83 85 86 87 86 87 88 88 85 76 74 77 82 83 55
74 79 84 86 88 94 38 30 37 42 39 28 27 27 39 46 49 55 55 56 54 58 62 60 64 66 78 76 76 77 77 76 80 82 83 84 77 78 80 80 69 55 54 57
72 78 77 72 73 55 50 33 35 36 39 34 33 37 49 55 52 56 57 55 54 58 59 57 62 61 60 63 68 74 76 76 76 77 78 75 62 58 50 48 48 53 52 52
58 72 86 77 64 57 66 48 48 42 31 34 36 33 50 50 55 54 54 54 55 57 58 59 63 66 63 61 63 68 71 72 70 60 49 47 46 45 44 38 40 44 49 52
57 63 69 66 49 44 48 38 44 46 49 38 40 30 37 52 53 53 53 54 56 55 59 59 63 62 60 60 61 61 59 58 52 47 41 35 33 35 39 44 51 51 56 54
43 51 65 67 44 48 47 48 46 47 53 53 43 37 34 43 52 49 54 55 53 58 60 60 58 57 54 53 52 53 53 49 44 46 41 39 38 44 42 41 47 49 43 44

GFSCGP_925_rhum_078.txt.gz
RH
30 36 39 38 36 30 31 33 34 28 21 34 38 39 36 67 68 75 88 94 94 87 91 93 95 98 99 100 98 98 99 98 89 81 74 63 50 39 39 43 52 45 57 66
36 41 32 30 31 32 32 34 32 24 19 27 25 23 27 67 68 70 78 87 89 92 91 92 99 96 98 99 97 93 92 91 85 83 74 64 53 43 42 40 36 36 49 54
37 36 28 30 32 34 32 33 31 24 24 22 25 30 25 45 54 64 67 69 74 84 92 88 94 98 98 97 100 93 88 82 79 72 67 58 49 44 41 40 37 42 59 62
29 26 31 33 32 30 36 25 25 26 31 38 26 46 36 32 47 60 61 63 73 76 82 86 91 99 100 99 100 92 86 78 71 67 75 75 71 66 64 59 52 57 65 62
31 32 32 33 31 28 33 26 25 24 29 34 35 44 38 32 45 54 63 61 68 72 80 84 85 88 91 89 90 84 80 80 77 76 75 76 80 75 68 70 68 66 69 68
23 20 26 26 25 25 23 24 30 34 38 50 38 44 44 40 30 44 50 54 62 68 73 75 77 79 81 82 81 80 78 73 73 74 75 79 73 76 75 66 63 63 65 67
23 22 21 21 26 24 25 33 52 55 64 60 40 46 37 31 27 32 47 51 59 60 64 74 76 75 72 75 77 78 77 74 69 72 76 80 80 79 73 67 63 69 74 79
38 45 26 21 24 26 31 34 61 58 70 66 47 49 35 25 26 24 32 44 49 57 58 61 68 68 60 63 67 70 71 70 70 72 87 88 86 83 73 66 60 70 76 75
43 37 22 19 20 20 29 41 36 55 56 68 58 44 26 19 19 19 30 46 52 50 55 56 56 62 63 53 59 64 66 68 68 68 78 87 83 81 77 67 60 57 66 69
34 39 23 20 19 22 26 29 48 58 73 69 57 50 41 28 21 19 30 47 50 44 50 52 53 55 60 61 57 60 62 61 64 65 69 76 80 78 73 68 60 63 65 71
30 37 36 23 25 27 31 34 35 41 61 70 61 51 40 32 27 22 23 32 41 46 47 47 47 50 55 58 63 65 66 63 63 65 69 73 72 70 73 72 74 69 95 98
29 38 43 35 25 22 22 26 32 61 52 57 63 44 28 31 25 22 22 25 28 33 40 46 45 44 49 54 57 60 63 68 64 66 64 64 71 69 76 86 89 82 94 85
34 39 54 36 29 28 31 28 28 38 54 55 76 58 32 28 21 19 21 23 26 32 32 35 44 48 43 47 51 54 62 67 65 65 66 67 68 77 76 76 98 94 74 82
55 49 35 42 37 36 37 29 25 30 51 44 58 41 33 26 29 25 24 24 25 27 34 36 40 48 53 52 50 54 56 64 67 63 66 71 75 86 94 99 100 100 97 98
50 58 48 34 40 39 39 36 28 31 38 40 35 41 34 33 31 27 23 26 26 26 27 32 42 62 84 86 76 73 72 73 72 71 69 82 98 100 100 100 100 100 100 100
62 56 58 62 49 44 47 36 31 30 31 33 36 39 28 26 30 21 24 26 27 26 34 32 40 79 89 95 99 100 100 100 96 97 99 100 99 99 100 100 100 100 100 100
89 63 66 72 50 46 70 49 35 34 30 32 38 32 24 25 24 22 22 29 29 27 36 50 59 74 88 97 100 100 100 100 100 100 100 100 100 100 100 99 99 100 100 100
96 95 71 80 62 90 58 36 28 31 27 28 24 22 25 22 21 20 22 28 32 38 52 76 92 97 100 100 100 100 100 100 100 100 100 100 100 99 100 100 100 100 100 100
88 88 85 77 72 63 50 36 29 32 31 27 22 22 20 19 26 28 26 34 38 47 74 90 92 98 100 100 100 100 100 100 100 100 100 100 100 100 100 100 100 100 99 97
74 78 86 90 71 82 46 38 31 29 47 27 25 26 22 29 42 37 30 41 56 75 84 94 95 97 96 99 99 100 100 100 100 100 100 100 100 99 100 100 98 95 88 83
99 94 90 96 96 86 56 42 31 46 49 30 23 26 27 31 38 31 46 53 62 74 88 93 96 97 96 94 94 98 95 95 97 98 99 100 100 100 99 96 91 83 87 90
95 100 98 99 99 92 55 49 40 42 38 34 28 28 31 36 47 53 58 64 69 80 90 90 95 96 92 90 88 90 89 88 90 92 94 94 95 94 90 82 85 88 79 66
76 86 85 78 81 61 57 61 58 52 43 38 42 39 40 51 53 61 62 66 73 77 77 80 88 88 87 84 83 82 84 83 84 87 90 86 82 82 84 84 84 71 63 63
64 72 80 75 60 61 55 51 53 43 48 45 37 44 48 46 58 63 62 66 73 71 73 73 76 79 79 78 80 79 79 78 80 74 65 64 65 58 57 60 60 59 59 57
56 68 69 71 53 49 50 44 48 52 47 48 44 35 46 52 59 60 62 66 68 72 72 72 71 70 72 77 78 76 74 72 53 47 46 46 48 51 54 57 58 57 60 57
52 63 74 70 48 49 47 34 42 50 50 49 40 39 40 50 60 59 62 64 69 69 64 58 58 60 63 63 62 59 56 50 48 53 54 49 47 51 57 51 47 44 46 46

GFSCGP_925_rhum_084.txt.gz
RH
37 43 50 45 42 36 35 37 39 37 29 29 34 36 32 60 83 86 93 97 97 97 76 92 99 100 100 100 100 99 99 100 98 93 94 90 87 70 57 54 50 60 61 49
43 49 33 37 39 38 37 40 42 36 30 32 32 35 32 47 71 78 90 94 94 97 88 83 98 100 100 99 100 100 100 99 99 96 92 91 77 70 71 70 67 63 55 50
37 36 33 37 41 42 43 43 42 35 37 33 34 38 31 36 66 69 79 86 89 91 97 85 86 98 100 100 99 99 100 96 91 90 94 92 77 75 85 75 52 68 63 61
38 28 33 41 40 37 46 38 36 38 40 51 33 54 38 30 37 71 74 92 90 91 93 90 83 86 94 99 97 98 98 93 85 82 84 78 76 73 70 66 70 77 75 76
38 32 35 39 40 35 35 35 41 40 44 42 40 52 39 35 41 40 68 77 84 86 91 92 88 87 86 87 95 95 98 94 87 76 80 74 72 65 59 63 56 58 54 51
31 26 29 30 30 35 32 36 38 44 49 63 46 44 42 38 39 37 42 65 79 83 86 91 88 88 90 91 93 95 98 97 92 87 81 74 65 64 62 58 50 47 48 47
31 29 23 26 32 37 37 42 57 59 66 64 42 50 35 31 32 33 34 53 69 78 82 90 96 94 97 96 96 98 100 98 96 90 83 72 69 60 56 58 55 47 44 45
30 32 30 25 31 39 43 44 70 60 67 55 51 60 46 35 32 31 34 46 65 77 79 82 88 93 98 99 99 99 100 99 95 93 90 84 81 76 71 69 68 60 54 46
49 44 27 23 22 24 35 49 37 53 64 73 60 48 36 30 25 27 36 56 70 75 79 80 79 83 90 96 100 100 99 94 90 88 88 87 85 81 78 74 71 70 64 59
43 57 33 28 23 25 30 36 48 64 64 71 63 58 46 36 32 26 34 52 58 70 77 79 79 79 81 82 87 89 88 86 83 80 80 81 79 74 71 72 70 67 60 59
72 49 42 29 33 32 37 36 41 49 62 60 66 61 48 34 32 32 27 40 54 65 74 73 73 74 77 77 78 82 82 80 78 75 74 73 69 67 65 69 70 67 68 74
78 91 77 43 25 25 28 30 33 45 57 67 60 42 30 35 33 31 29 27 44 60 66 68 70 72 78 79 76 79 80 78 71 68 65 60 61 66 69 73 69 73 76 83
65 90 95 60 39 32 37 34 34 48 56 58 63 48 33 30 33 32 34 31 29 48 62 64 69 71 70 76 78 74 74 76 75 73 69 70 75 80 77 80 86 87 89 90
67 77 90 95 83 62 58 36 31 42 60 49 47 42 33 32 33 31 30 28 25 32 51 63 64 67 66 67 71 76 71 72 73 73 72 71 72 75 77 78 80 88 89 91
79 94 80 78 87 87 74 54 38 39 41 48 41 44 37 34 31 32 31 31 29 28 38 51 57 64 65 64 67 70 72 73 71 74 76 74 75 78 80 81 85 90 96 100
88 98 92 80 61 69 68 51 42 43 50 48 44 43 33 31 30 31 31 30 30 30 28 35 41 52 63 62 64 67 71 74 75 78 81 82 81 83 90 94 100 100 100 100
96 99 97 78 69 74 76 49 44 48 48 46 52 42 31 32 34 33 28 32 31 29 31 30 37 40 48 69 67 78 90 92 86 88 96 99 100 99 100 100 99 99 100 100
87 99 99 95 91 97 63 41 37 42 41 47 44 37 36 34 31 29 31 29 32 30 30 35 42 88 92 89 91 100 100 100 99 100 100 100 99 100 100 100 100 100 100 100
73 89 99 96 90 92 64 53 53 56 44 37 41 42 37 32 28 31 29 33 30 31 30 41 66 87 100 100 100 99 99 100 100 100 100 100 100 100 100 100 100 100 100 100
77 79 88 99 97 93 65 54 59 44 66 45 42 45 40 33 43 35 25 31 31 37 72 93 96 99 98 99 97 100 100 100 100 100 100 100 100 100 100 100 100 100 100 100
94 93 96 96 96 90 68 81 73 68 65 55 46 42 37 35 41 29 32 57 78 93 98 98 98 96 98 99 95 100 100 100 100 100 100 100 100 100 100 100 100 100 100 100
84 95 98 99 99 94 71 79 90 74 75 64 63 57 47 43 41 43 54 88 98 97 97 98 98 98 100 98 96 98 99 100 100 99 100 100 100 100 100 100 100 100 100 96
72 72 77 87 86 66 64 68 57 63 84 63 60 58 59 57 49 68 88 98 98 97 97 99 97 99 100 98 93 98 100 98 96 96 98 99 99 100 99 98 99 100 96 94
55 65 79 84 54 64 52 47 53 57 63 67 47 57 58 60 65 88 91 96 97 96 93 95 94 93 96 98 99 99 93 88 86 91 93 94 95 94 93 92 94 96 99 98
60 58 61 68 62 56 53 54 54 58 60 59 55 60 58 70 79 84 90 86 81 81 85 87 88 86 84 81 82 86 84 83 85 87 84 84 86 85 87 89 96 98 98 98
62 54 73 62 47 61 54 51 58 57 58 60 61 66 61 72 84 76 75 73 74 74 73 73 73 74 75 75 73 71 74 79 84 89 93 94 92 96 95 95 98 97 96 96

GFSCGP_925_rhum_087.txt.gz
RH
43 40 49 40 37 29 29 34 33 30 27 27 23 27 24 25 50 57 65 75 79 78 68 82 94 99 99 99 100 100 99 100 96 90 96 98 93 86 78 73 58 69 60 55
41 46 37 36 37 35 33 35 34 29 28 30 26 26 24 33 38 42 55 68 74 77 74 78 93 100 100 99 99 100 100 98 99 99 92 90 87 93 79 71 63 66 61 54
35 36 33 36 40 40 38 38 35 32 31 28 32 30 26 26 44 50 57 55 66 71 74 73 84 92 98 100 99 100 100 100 95 94 94 89 86 81 68 65 75 63 58 47
33 25 36 35 38 36 40 34 33 34 34 28 32 39 30 24 24 46 44 63 62 70 69 67 77 88 95 96 100 100 100 100 100 93 90 87 77 82 74 60 57 65 53 52
37 35 34 35 39 35 32 32 35 34 37 39 34 41 31 30 25 24 32 50 61 65 69 70 73 78 84 91 98 99 100 98 99 99 89 88 76 69 84 78 68 74 70 63
32 26 29 29 28 34 32 33 37 44 43 53 40 40 31 25 24 27 31 43 56 63 68 64 71 78 81 89 94 98 98 96 93 94 91 84 80 74 77 80 73 67 64 67
32 29 26 27 32 35 32 41 48 56 58 48 38 44 32 26 25 26 23 31 51 59 65 68 69 75 78 84 89 94 95 93 94 88 86 85 79 74 72 72 66 65 57 69
30 27 29 26 27 36 41 39 45 43 53 42 45 42 30 27 27 28 29 29 45 60 61 64 65 70 78 81 88 90 93 93 96 93 86 85 79 78 74 71 67 69 68 63
51 32 27 26 23 25 41 46 32 48 61 58 44 42 33 26 26 24 24 38 51 59 61 60 64 70 75 80 88 93 94 97 96 94 92 89 82 82 77 73 70 70 66 66
62 57 36 30 24 24 30 35 47 46 45 48 45 49 32 31 27 28 25 32 45 59 64 60 62 70 74 78 85 98 98 99 90 91 93 91 88 82 80 76 72 67 59 58
64 62 49 33 31 30 32 32 39 40 48 41 46 43 41 30 25 27 27 26 36 54 60 62 60 64 70 77 82 92 97 90 87 87 90 91 90 91 87 84 82 78 77 77
67 82 86 57 39 32 26 31 30 40 37 59 51 37 29 33 32 31 28 26 24 38 53 58 61 65 69 74 77 80 85 84 83 83 85 87 87 88 89 88 85 84 78 73
46 71 60 51 40 43 50 47 37 39 43 44 55 41 30 30 32 31 31 28 28 31 48 57 62 65 67 70 72 74 78 80 77 79 80 81 83 82 82 81 79 77 70 78
64 69 45 47 72 69 64 59 59 72 55 42 43 34 31 32 31 26 30 31 27 26 31 51 57 59 63 69 71 72 73 76 75 76 76 76 76 74 72 75 70 66 77 85
69 82 72 64 58 60 67 59 64 73 66 50 34 33 29 25 29 26 28 29 29 26 25 36 48 53 57 64 72 74 72 76 77 76 76 75 74 78 80 81 79 83 88 93
81 92 89 83 74 64 58 52 48 62 57 53 37 34 30 27 29 29 28 28 29 29 25 25 36 48 55 61 67 73 77 76 78 78 78 76 77 83 86 87 92 94 96 100
68 88 92 76 65 62 63 53 58 53 45 42 46 37 32 31 31 32 29 29 29 27 27 27 28 36 48 56 65 74 81 84 81 79 80 90 84 81 86 93 98 99 99 100
77 89 90 82 78 75 34 43 47 56 47 37 38 37 33 31 30 30 28 28 28 28 26 28 29 42 60 73 79 92 99 98 100 100 100 99 98 99 100 100 100 100 100 100
68 72 77 86 66 53 40 51 58 84 74 51 40 35 34 31 33 30 26 28 27 28 28 29 34 75 93 92 94 98 100 100 100 100 100 100 100 100 100 100 100 100 100 100
65 69 78 82 84 77 55 73 71 57 77 69 62 48 44 39 49 31 28 33 37 32 42 59 77 89 96 96 96 97 100 100 100 100 100 100 100 100 100 100 99 100 100 100
90 91 92 79 83 60 67 73 73 75 70 73 65 65 60 47 37 34 39 78 88 86 84 86 85 92 98 98 98 98 100 100 100 100 100 99 100 100 100 100 100 100 100 100
76 90 90 86 91 87 64 70 71 82 74 69 65 67 65 61 56 52 83 93 93 91 95 92 95 97 98 98 97 98 98 100 100 100 100 100 100 100 100 99 100 100 100 99
67 68 72 72 70 74 57 63 69 74 70 69 68 70 58 65 66 80 94 95 96 95 97 99 96 97 97 97 98 98 100 99 99 98 99 100 99 100 100 100 100 100 100 100
51 57 71 68 52 56 60 52 51 50 58 51 52 62 63 71 81 92 95 95 94 94 92 94 95 96 98 99 97 94 92 92 92 93 93 95 96 99 100 100 100 100 100 100
45 56 57 56 51 52 46 54 47 48 49 58 56 53 78 80 84 81 85 87 86 85 86 84 79 76 78 80 83 86 89 87 88 88 89 93 98 100 100 100 100 99 99 97
52 52 60 59 44 50 43 47 53 56 67 67 68 67 73 82 88 81 84 82 83 83 82 81 81 80 80 81 84 86 87 87 87 89 95 99 100 100 100 100 100 100 99 98

GFSCGP_925_rhum_090.txt.gz
RH
27 28 30 23 25 20 17 17 17 14 16 20 16 14 14 13 15 22 27 31 38 43 46 57 64 86 90 99 99 100 100 100 94 93 100 100 100 98 99 93 82 63 54 50
31 33 18 20 22 26 21 21 19 16 15 21 16 15 14 14 15 18 21 29 34 42 48 54 64 82 86 99 99 100 98 99 98 93 96 99 98 97 93 91 82 75 54 54
26 20 20 24 31 31 24 24 22 21 17 18 17 18 14 13 18 20 24 23 29 39 46 52 60 70 84 96 99 100 100 100 94 97 97 96 96 94 96 95 84 70 49 67
22 15 24 28 28 26 24 18 22 25 24 23 22 22 15 16 16 14 16 28 29 37 41 45 55 64 79 86 94 90 100 100 99 96 89 96 90 88 84 79 82 77 80 76
24 26 23 30 27 25 27 18 23 24 25 24 22 20 16 18 19 15 16 19 29 36 40 42 50 58 72 79 88 91 96 100 100 92 90 87 83 72 80 82 74 72 64 60
23 22 22 22 22 26 27 28 28 28 28 37 26 20 17 17 16 15 17 21 27 34 40 39 46 53 63 78 80 85 88 97 100 99 96 86 83 78 81 80 74 67 63 62
19 20 19 22 26 23 27 27 34 42 41 37 18 23 19 17 15 16 15 16 27 32 40 41 44 49 55 74 80 80 80 86 96 100 95 86 82 69 71 71 75 79 68 66
20 20 15 16 18 24 31 28 34 42 36 28 22 30 20 17 15 16 20 19 22 32 38 40 40 47 51 64 77 81 78 76 84 88 94 84 77 64 63 69 61 64 66 68
34 19 21 16 17 16 25 34 24 33 29 40 26 25 21 19 18 16 16 17 22 30 34 36 39 46 50 55 67 78 78 75 78 80 80 80 76 69 64 60 66 66 63 64
40 43 27 25 21 18 18 19 35 34 43 40 26 29 25 21 18 16 16 17 22 30 33 31 37 44 48 52 57 71 72 70 70 78 77 75 76 72 68 66 65 64 64 63
36 48 36 31 27 25 26 29 29 27 31 35 34 25 20 22 18 16 15 20 22 30 34 33 33 40 47 52 54 66 73 70 69 69 72 74 73 73 71 69 69 66 65 64
32 50 54 47 32 29 29 26 25 36 34 36 34 29 18 23 20 21 18 20 18 24 31 34 35 38 46 51 54 62 68 68 67 65 67 71 73 73 74 72 72 73 72 69
35 52 51 39 38 41 43 44 41 43 38 37 47 33 18 17 20 18 17 18 18 22 27 33 37 39 42 48 52 55 62 65 63 63 65 70 74 75 74 76 76 74 75 74
38 38 32 32 34 38 43 40 36 41 58 41 35 28 22 19 20 19 16 17 17 20 22 30 35 39 41 44 48 51 54 59 60 60 61 65 69 72 72 74 77 80 82 78
37 40 37 40 39 39 37 35 37 40 36 51 41 35 23 19 20 18 15 15 18 18 18 24 30 34 37 43 48 50 52 58 60 59 59 60 66 67 67 67 70 74 76 74
63 58 54 60 47 42 38 29 27 30 32 30 31 37 23 21 17 18 18 17 18 19 18 18 20 27 34 39 46 50 54 57 63 62 60 60 62 63 64 68 70 71 70 71
60 71 75 51 42 46 51 41 33 25 24 32 44 32 23 22 20 18 20 19 19 18 18 18 18 21 29 37 44 47 55 60 64 65 64 65 66 66 66 70 72 74 78 87
62 71 67 59 53 52 21 24 27 29 31 33 44 37 30 24 19 17 19 21 20 21 19 18 18 20 25 35 44 48 55 62 66 65 65 67 70 74 84 94 98 99 100 100
52 60 70 71 49 33 29 32 26 40 33 53 56 53 44 31 25 24 20 19 22 19 19 19 18 19 37 41 48 59 63 64 69 75 90 97 98 100 100 100 100 100 100 100
48 57 66 60 68 59 46 36 42 43 51 54 54 54 54 52 51 32 22 25 32 28 27 26 30 42 48 56 62 68 81 89 99 100 100 100 100 100 100 100 100 100 100 100
76 82 85 72 76 51 30 26 45 66 56 48 49 53 58 63 56 49 39 44 64 60 54 53 52 57 65 72 78 90 99 99 100 100 100 100 100 100 100 100 100 100 100 100
70 79 82 73 88 75 37 49 71 53 44 41 42 53 81 59 55 53 62 77 82 78 69 70 75 84 86 86 94 98 98 100 100 100 100 100 100 100 100 100 100 100 100 100
54 47 50 52 48 37 47 42 37 38 45 43 42 45 74 69 60 67 83 84 89 85 81 85 92 93 95 95 97 97 99 98 98 97 98 100 100 100 100 100 100 100 100 100
31 28 46 44 34 27 27 32 36 39 40 33 43 56 51 53 68 82 86 88 91 90 90 92 91 91 95 95 93 93 91 89 90 93 97 99 99 100 100 100 100 100 99 99
34 31 37 37 31 29 28 26 27 34 37 37 48 58 54 60 72 76 82 86 88 87 84 83 83 85 87 87 85 84 85 86 91 94 96 97 99 100 100 100 100 100 100 99
36 38 43 46 32 33 32 28 38 41 43 54 58 61 58 63 75 87 90 82 83 82 83 82 80 80 80 78 78 81 83 86 87 90 93 96 98 100 99 98 100 100 100 97

GFSCGP_925_rhum_093.txt.gz
RH
16 18 21 17 17 17 18 17 18 14 11 13 14 13 10 9 10 12 13 14 19 27 28 43 50 63 74 94 99 99 99 99 99 100 100 100 100 100 100 99 80 80 76 70
11 20 13 16 17 19 20 22 21 16 12 14 16 15 10 9 9 10 11 14 18 24 32 42 52 63 75 89 97 95 94 95 99 100 99 98 100 100 100 98 92 87 78 70
19 12 14 14 18 23 23 26 23 20 15 14 17 18 14 10 9 9 11 12 13 21 32 40 46 60 75 86 96 92 91 91 93 99 100 100 97 100 98 93 84 74 72 70
17 13 14 18 19 18 28 21 20 19 20 25 15 22 14 11 11 12 13 14 15 18 28 34 42 51 75 76 84 93 92 92 93 92 92 96 90 86 91 93 91 86 79 70
19 17 16 18 19 18 24 19 20 20 21 23 19 21 17 11 11 11 11 11 14 18 27 32 38 43 59 73 72 84 95 94 95 89 88 89 83 84 96 99 91 86 68 55
20 13 16 14 14 16 18 23 23 23 24 32 23 22 19 12 13 12 13 14 14 18 26 29 35 39 50 71 75 76 86 95 94 87 85 86 87 84 84 92 90 85 78 68
18 21 18 17 17 19 22 28 40 63 58 37 20 24 21 12 11 11 12 12 17 20 27 30 35 37 46 65 74 73 77 89 96 93 85 83 84 81 76 82 81 88 84 82
17 21 17 16 18 21 23 27 33 50 50 42 21 24 18 11 11 12 12 12 16 21 27 29 32 35 41 59 68 73 72 74 91 96 91 85 84 82 81 74 74 70 78 76
23 15 12 9 10 15 21 31 22 30 31 38 29 19 18 14 15 14 12 14 16 20 25 28 29 36 37 49 59 63 64 68 77 86 93 90 87 78 73 70 67 67 61 60
32 36 21 12 14 14 15 13 27 26 44 50 30 24 21 18 17 14 13 13 13 17 23 26 27 35 38 43 52 63 60 59 69 73 83 83 86 84 72 65 68 64 62 60
29 37 30 26 25 19 19 19 19 21 24 33 38 26 16 18 17 16 14 15 15 17 22 24 25 30 38 41 46 58 58 54 57 68 71 76 80 76 70 65 60 63 67 65
29 39 40 30 23 26 28 19 19 32 29 25 28 29 18 19 18 20 18 15 16 19 22 22 23 28 34 40 42 51 55 52 51 58 65 69 70 72 70 68 65 63 64 64
30 35 42 32 27 28 32 25 24 24 29 34 41 35 15 16 16 15 17 14 14 17 20 23 23 26 32 37 42 45 52 53 51 52 57 62 65 66 68 69 67 68 68 65
39 30 35 32 31 29 40 34 31 32 43 36 30 23 17 16 16 16 16 16 15 16 16 20 24 26 28 34 40 43 49 52 51 51 53 59 63 65 64 66 68 68 69 69
38 35 27 25 23 24 26 28 28 30 32 40 32 28 23 20 18 16 16 15 15 14 14 15 21 26 28 32 37 41 44 52 53 50 51 54 60 63 64 64 67 68 70 69
48 47 33 32 30 28 27 20 18 17 20 24 25 26 17 16 16 18 17 15 14 14 12 15 16 20 26 29 34 38 41 46 52 53 52 52 57 60 63 64 66 68 69 70
53 49 55 46 26 30 43 31 24 20 16 17 26 21 17 22 20 18 17 15 14 13 14 14 16 16 19 24 30 34 40 44 50 53 52 53 54 58 62 62 63 63 66 69
65 56 60 58 50 54 22 14 18 21 24 18 13 16 29 26 22 18 15 14 14 15 18 16 16 15 15 18 25 33 38 43 50 53 53 54 56 57 59 60 64 90 95 97
43 70 74 68 50 33 26 25 37 28 26 41 40 35 34 34 36 34 20 17 20 22 20 17 16 16 17 18 24 33 37 43 49 53 54 55 59 61 83 98 100 100 99 99
39 51 75 63 64 56 34 25 23 32 46 39 39 44 51 46 55 41 42 40 35 35 37 28 27 21 23 29 30 37 42 46 51 54 69 79 97 97 100 100 100 100 100 100
64 88 86 69 65 46 27 24 25 54 66 40 38 39 42 51 54 50 47 46 46 54 49 46 38 32 34 39 42 46 62 94 100 99 99 100 100 100 100 100 100 100 100 100
68 81 82 65 81 72 26 37 47 45 36 34 38 38 38 40 46 54 50 51 66 72 65 54 49 50 55 62 84 97 98 100 100 100 100 100 100 100 100 100 100 100 100 100
75 42 52 48 50 31 32 36 30 28 32 34 38 34 37 43 46 60 68 61 79 82 81 84 83 88 90 94 96 96 99 99 100 99 100 100 100 100 100 100 100 100 99 99
27 28 38 37 32 28 26 22 22 21 27 30 31 36 37 39 44 72 78 70 81 85 87 89 92 93 94 94 95 95 97 98 98 98 99 100 100 100 100 100 99 99 98 96
30 28 37 33 27 25 24 23 22 23 30 31 39 40 43 45 65 80 81 78 80 83 84 87 88 88 89 89 90 93 96 96 96 97 97 98 100 100 100 100 100 100 100 100
31 34 39 42 29 34 29 25 27 30 32 37 46 52 59 68 73 75 84 80 88 92 93 90 91 89 89 88 89 91 91 92 91 92 94 96 97 98 98 99 99 97 97 96

GFSCGP_925_rhum_096.txt.gz
RH
12 13 18 17 18 18 20 20 21 16 13 14 14 14 12 11 10 11 11 14 14 20 25 42 44 56 68 86 95 98 98 99 99 100 100 100 100 100 100 100 90 94 81 67
17 16 13 11 13 16 18 21 22 19 15 16 16 15 14 13 12 10 9 11 14 19 38 44 50 59 70 86 91 98 97 98 99 98 99 100 99 100 100 100 100 91 81 68
20 13 11 13 13 16 20 23 25 26 20 18 18 18 17 14 12 11 10 10 11 18 36 44 52 57 70 84 90 90 91 95 98 94 98 100 99 100 100 100 100 90 76 69
20 15 15 11 16 13 19 17 20 25 30 31 20 28 19 15 12 11 10 11 14 13 33 41 47 58 71 82 88 85 84 91 95 95 97 95 97 97 99 98 95 83 74 74
22 18 17 17 14 15 18 15 18 25 34 32 28 28 21 15 14 12 13 14 15 16 32 40 43 51 65 77 86 83 85 90 94 93 92 90 88 91 96 96 97 91 88 84
16 13 13 14 14 13 13 17 21 24 28 43 35 33 25 18 15 12 10 12 13 16 30 34 38 44 60 72 84 83 85 91 92 91 91 86 81 90 89 88 85 87 91 89
17 18 14 14 18 15 15 22 39 48 52 64 32 31 25 18 14 11 14 15 16 20 30 34 38 42 53 73 73 87 88 86 94 87 91 85 85 90 88 88 82 83 83 88
22 22 12 15 20 21 17 23 38 47 59 44 39 39 24 16 13 11 10 11 18 22 31 32 36 39 49 70 73 73 81 83 91 90 90 88 86 86 86 86 84 88 81 76
33 25 9 13 16 17 19 28 22 33 32 71 50 36 25 15 15 14 13 13 19 23 29 30 36 40 45 62 72 74 77 80 84 89 89 87 86 82 81 87 84 87 82 77
40 44 13 12 12 15 18 17 31 31 46 49 37 48 36 23 19 16 14 14 19 22 28 30 32 41 41 56 64 72 68 76 84 87 87 86 86 86 82 80 78 80 80 77
28 35 39 13 13 15 15 17 17 19 27 38 46 42 35 34 26 22 20 17 17 18 25 29 30 37 38 49 56 67 65 63 74 84 87 86 86 85 81 79 77 73 72 73
30 37 45 37 19 21 26 18 19 29 31 27 33 34 33 26 23 22 19 17 17 18 22 26 29 37 38 44 50 61 61 58 65 73 82 84 88 86 82 78 76 73 74 69
39 35 43 34 25 24 29 27 21 20 23 33 49 40 22 22 19 16 18 18 18 18 20 24 27 33 38 41 45 54 60 57 57 66 72 79 79 84 83 81 73 72 71 70
42 28 33 44 34 26 32 29 29 31 45 34 35 27 31 42 22 18 18 19 18 18 17 21 25 26 34 38 42 47 55 56 53 60 67 72 76 80 78 75 71 63 67 70
37 33 25 22 21 20 21 27 28 33 34 41 34 28 22 21 20 18 18 19 18 16 14 15 22 27 29 35 40 44 50 53 53 52 58 66 72 72 74 74 73 72 70 69
34 46 38 36 23 20 24 22 21 20 20 21 24 27 20 18 17 18 18 17 17 17 15 14 14 20 28 32 38 43 45 52 54 52 54 57 66 68 69 70 72 72 72 73
46 48 48 52 34 26 37 26 20 17 14 16 22 20 17 19 18 20 23 23 20 17 15 14 18 18 25 30 34 40 44 50 55 54 53 55 61 66 68 68 70 72 72 73
60 54 56 61 51 61 30 14 15 20 19 17 28 17 13 17 26 26 29 44 46 40 37 37 28 23 19 18 28 34 39 44 54 56 54 54 56 63 64 67 69 76 83 88
36 49 75 64 55 36 27 22 25 42 38 40 42 40 42 41 39 31 38 42 46 47 52 50 45 39 33 24 20 31 35 40 48 54 55 54 55 59 61 83 100 99 97 100
37 48 72 67 68 58 38 26 22 28 49 42 40 42 46 43 61 45 40 43 43 46 54 56 56 46 40 30 24 25 34 40 47 51 53 52 59 85 100 100 99 100 100 100
62 71 81 79 77 52 34 26 26 47 68 41 40 43 42 44 44 44 42 43 43 54 62 67 61 55 46 50 32 52 83 94 96 92 98 99 98 100 99 100 100 100 100 100
61 84 87 73 74 76 26 26 45 44 34 31 33 42 42 42 42 39 38 49 56 68 72 77 74 82 83 83 86 93 98 100 100 100 99 99 100 100 100 99 100 100 100 100
80 49 56 51 50 36 33 40 36 28 26 27 35 32 36 40 38 37 53 69 75 74 79 86 88 93 94 91 91 97 100 100 100 100 100 100 100 100 100 100 100 100 100 99
53 39 66 80 49 40 41 39 37 22 22 27 30 37 36 41 45 57 72 75 78 79 81 86 89 92 94 97 98 99 99 99 100 99 100 100 100 100 100 100 99 99 99 99
44 58 55 65 31 31 28 32 35 32 28 28 38 39 43 65 72 80 81 86 86 87 89 91 92 91 93 96 98 99 100 99 99 99 100 100 100 100 100 100 100 100 100 100
40 44 57 61 39 40 39 30 29 28 31 43 45 46 57 67 72 81 90 89 87 90 92 94 98 98 99 99 100 100 100 99 98 98 98 99 99 99 99 98 99 98 97 97

GFSCGP_925_rhum_099.txt.gz
RH
16 19 21 21 30 29 29 30 30 25 19 19 22 21 17 14 14 18 23 21 21 31 53 58 74 76 79 82 86 86 96 100 95 94 99 97 100 100 95 98 97 88 82 75
21 20 15 13 17 23 27 29 27 21 19 20 25 27 21 16 15 16 16 16 21 54 55 63 78 86 80 86 86 93 94 95 96 99 98 99 100 99 98 99 93 88 78 75
37 28 16 14 15 18 18 24 26 25 22 22 31 33 25 18 15 15 14 15 24 55 59 67 72 88 85 87 93 87 95 94 100 99 96 100 100 100 100 100 100 94 88 78
36 27 22 16 16 17 21 15 18 20 27 44 29 52 34 23 20 17 15 14 20 54 54 65 72 87 89 86 87 86 92 93 96 100 96 99 99 98 100 100 100 100 93 74
29 26 26 24 21 15 18 18 18 19 28 39 40 47 39 27 26 18 17 16 17 50 55 66 69 80 86 82 82 88 95 94 92 96 100 99 100 100 100 100 100 100 87 81
20 16 17 20 18 18 17 20 24 23 34 53 45 43 44 35 26 18 15 15 18 48 52 61 64 77 86 82 84 89 94 95 93 95 95 97 98 100 100 100 100 100 98 85
22 19 15 16 22 20 20 24 51 61 58 56 33 39 38 29 22 19 18 20 24 46 52 56 69 74 86 90 86 90 90 99 93 95 89 88 88 93 96 98 99 100 99 95
34 37 19 15 21 28 26 26 59 63 73 63 36 60 46 26 20 17 15 20 38 46 49 51 65 71 82 87 84 83 88 95 96 97 92 85 87 91 92 93 93 87 79 77
39 35 30 17 14 21 27 32 25 38 42 72 63 45 41 34 26 25 18 20 37 42 46 49 55 65 78 81 88 80 80 87 91 96 93 89 89 90 88 83 79 77 80 82
42 55 34 35 13 17 23 22 33 36 50 60 48 54 64 46 34 32 29 21 31 40 42 46 49 62 77 78 78 82 82 80 87 88 95 91 91 88 88 85 81 80 77 78
33 42 47 44 20 22 29 28 25 32 43 56 57 49 50 46 41 39 30 21 32 36 38 44 46 50 72 77 79 79 81 82 85 82 92 90 92 87 88 89 86 86 85 79
48 42 59 48 48 47 22 23 23 39 36 42 42 40 32 39 37 34 38 37 20 22 36 40 44 46 62 70 78 79 80 84 88 85 85 83 89 89 88 90 86 85 86 82
50 48 53 66 56 48 34 30 30 24 30 38 58 52 35 46 37 40 40 32 23 24 27 39 45 46 58 62 70 76 75 74 85 89 87 87 86 90 90 88 84 83 83 83
48 41 38 51 58 52 34 31 49 52 45 36 34 30 42 50 49 37 21 22 20 34 21 33 46 45 50 56 63 70 72 69 75 84 90 91 89 92 89 86 84 82 80 81
45 55 44 36 30 28 27 24 30 61 53 56 48 36 35 51 61 29 21 29 32 34 34 26 24 41 45 51 55 64 67 66 64 76 85 88 86 87 92 87 86 80 79 80
40 63 54 52 41 31 33 23 23 24 24 25 26 27 20 21 24 22 49 50 51 54 55 52 50 47 46 48 51 57 65 65 63 72 74 81 86 86 89 87 87 82 78 79
56 59 65 68 43 50 55 36 27 24 20 21 25 26 18 16 32 53 56 53 51 55 60 59 57 55 50 49 48 52 60 62 62 60 70 74 81 84 88 87 82 81 78 70
67 64 70 85 61 77 42 27 24 26 29 31 45 54 49 49 45 48 48 52 51 53 62 61 62 62 59 52 44 47 55 60 62 60 59 66 78 79 81 84 84 83 82 83
47 64 90 85 83 58 35 30 42 48 65 48 52 49 44 44 46 46 44 46 51 65 67 66 68 67 69 78 78 45 44 61 62 61 60 60 67 76 78 78 90 92 95 100
41 58 82 86 84 81 54 49 30 32 80 50 53 56 53 49 75 60 46 42 57 72 72 75 75 74 80 86 83 81 78 68 68 64 63 64 63 72 82 98 99 100 100 100
63 71 80 85 97 73 45 49 35 55 73 45 40 49 50 55 56 50 46 66 69 74 76 79 82 84 91 89 87 97 100 100 100 98 90 86 88 98 100 100 100 100 100 100
66 83 88 85 91 82 36 38 51 57 47 35 47 43 54 54 49 47 61 83 82 82 82 84 88 90 93 92 94 99 99 100 100 100 100 100 100 100 100 100 100 100 100 100
78 66 83 71 70 49 45 51 56 44 45 40 53 50 49 50 54 72 86 86 83 83 83 88 89 90 93 96 97 100 100 100 99 99 100 100 100 100 100 100 100 100 100 99
84 68 69 68 53 48 45 43 46 39 38 50 51 52 60 80 87 88 87 90 90 88 91 93 92 92 95 99 100 99 100 100 100 100 100 100 100 100 100 100 100 100 100 98
75 79 79 85 73 72 70 56 47 39 51 52 53 65 78 80 86 88 92 85 85 88 90 93 95 97 99 100 100 100 100 100 100 100 100 100 100 100 100 100 100 100 100 98
59 84 97 88 78 80 76 64 59 53 57 60 67 78 83 86 90 87 90 90 91 89 92 92 96 97 100 100 100 100 100 99 98 98 99 99 99 99 98 98 100 98 96 96

GFSCGP_925_rhum_102.txt.gz
RH
19 24 26 23 35 31 35 38 41 31 24 24 25 27 26 26 24 20 21 24 24 52 62 70 84 82 81 82 83 84 87 90 95 100 100 100 100 97 99 100 99 100 97 87
29 26 18 15 17 24 35 39 38 30 25 24 24 24 30 28 24 21 19 20 25 67 71 80 92 96 93 90 88 88 92 92 90 88 93 99 98 100 97 100 98 100 91 89
49 31 17 17 18 18 22 32 34 33 25 22 25 30 33 27 25 23 19 19 34 65 73 84 90 96 95 93 91 94 96 85 88 90 97 99 97 99 98 100 100 99 92 89
46 37 37 25 19 18 20 16 19 21 26 33 33 47 33 32 30 25 21 19 38 60 66 78 87 95 98 94 90 90 95 94 96 86 97 99 100 98 99 98 100 100 98 90
32 41 44 42 30 18 20 18 22 22 26 31 35 50 42 32 34 28 23 20 31 60 66 75 85 89 96 93 88 86 94 99 97 96 93 100 100 100 99 100 100 98 95 88
25 20 22 28 26 22 16 20 22 24 34 47 49 51 46 42 32 27 21 19 21 56 64 68 81 91 96 92 91 89 92 98 96 98 95 99 99 100 100 100 100 100 94 91
27 26 20 18 21 20 25 29 48 52 59 56 38 44 35 32 27 26 24 21 21 34 66 78 90 93 94 92 89 96 94 95 95 99 95 93 99 100 99 100 100 100 100 98
40 41 24 18 20 26 28 32 58 53 75 57 36 52 49 37 33 28 25 24 42 60 68 74 84 89 91 90 89 94 99 97 96 95 95 94 94 98 100 100 100 100 100 99
50 37 32 18 17 19 24 36 32 44 56 65 55 48 41 41 42 37 26 28 50 62 67 72 78 84 90 92 91 93 96 95 96 98 94 92 96 99 99 99 100 100 100 100
44 55 36 37 29 20 26 28 37 43 49 56 54 53 57 51 50 41 36 38 45 53 60 69 74 83 86 90 90 89 89 90 94 99 95 91 93 93 95 96 97 97 99 95
47 53 48 40 48 30 30 30 33 40 50 47 61 52 52 54 50 48 50 42 40 38 58 57 68 77 83 88 89 88 83 81 91 94 96 92 93 93 91 91 89 88 90 95
57 59 66 46 48 44 47 32 40 59 54 51 58 51 39 45 44 56 55 44 39 32 33 54 55 74 80 84 88 88 85 82 81 87 93 93 90 90 90 89 86 82 79 80
65 77 68 54 50 58 43 43 45 45 45 56 61 47 47 51 51 47 47 54 44 48 55 71 66 73 79 81 84 85 87 83 85 84 89 95 95 91 90 87 88 84 85 76
61 70 48 60 70 64 47 39 52 61 65 56 42 34 59 57 53 42 47 58 62 53 56 68 84 82 76 75 81 82 86 86 88 87 85 90 95 93 92 89 91 89 89 89
62 65 55 48 40 37 42 31 39 75 69 63 51 49 59 49 48 59 55 52 57 62 60 58 60 81 70 74 74 80 82 85 90 91 88 86 87 92 88 94 93 89 87 88
60 64 60 55 44 48 46 38 34 39 57 49 34 25 29 40 54 66 56 53 58 67 59 60 57 58 66 64 72 73 78 82 88 91 91 89 90 92 91 93 95 93 92 90
75 75 75 73 61 52 50 38 34 29 34 42 35 62 39 60 59 59 60 58 61 63 59 64 65 67 71 78 81 77 74 78 80 86 90 93 93 93 94 95 94 94 95 94
61 72 80 90 66 75 43 32 32 57 58 55 57 52 52 56 54 54 53 60 71 68 71 72 72 78 83 84 82 83 76 76 79 77 82 90 92 92 94 97 97 97 95 92
55 72 87 87 91 62 36 48 47 52 70 56 59 52 48 49 51 54 50 66 74 77 76 75 78 84 87 89 86 81 90 90 75 76 75 82 90 91 93 96 96 95 99 97
49 61 78 90 84 87 49 50 44 42 87 53 56 58 56 53 77 65 67 74 80 80 80 82 82 86 92 93 90 90 99 100 98 92 76 76 83 88 92 100 100 100 100 100
71 89 81 95 96 81 53 42 43 56 66 46 52 53 57 61 59 53 81 84 80 81 81 83 84 88 94 96 97 99 99 100 100 100 100 89 92 95 100 100 100 100 100 100
72 82 92 90 93 81 39 46 49 59 49 48 51 56 58 53 66 84 84 84 83 84 86 88 89 90 95 97 97 99 99 100 100 98 99 100 100 100 100 100 100 100 100 100
96 69 82 74 71 48 49 56 59 50 47 56 55 52 61 77 91 89 91 90 88 89 90 91 93 90 95 99 99 100 100 100 100 100 99 99 100 100 100 100 100 100 100 100
96 88 75 70 59 72 73 60 50 44 59 58 62 80 84 94 91 91 90 90 89 89 89 91 92 95 98 99 99 100 100 99 99 100 100 100 100 100 100 100 100 100 100 99
91 89 90 88 79 71 68 62 64 59 60 76 80 84 87 89 95 92 94 92 91 90 89 91 93 97 99 100 100 100 100 100 100 100 100 100 100 100 100 100 100 100 100 96
93 100 100 100 91 91 82 79 60 64 71 77 82 88 89 86 87 87 95 92 93 98 95 95 97 100 100 100 100 100 100 100 99 99 99 99 99 99 99 99 100 97 95 93

GFSCGP_925_rhum_105.txt.gz
RH
22 24 27 24 38 29 32 41 44 34 29 28 32 31 27 24 24 31 28 25 24 31 68 75 87 90 93 89 90 85 91 92 95 99 98 100 99 98 100 100 99 100 100 99
40 35 21 22 25 33 41 42 43 37 30 30 32 31 24 26 28 28 25 27 24 56 78 87 97 97 97 98 90 89 90 95 95 94 100 99 93 99 97 100 99 98 99 99
37 38 31 21 22 22 25 35 39 41 31 29 30 30 25 24 30 28 29 27 23 55 78 83 94 97 99 100 95 91 92 93 90 85 88 95 97 96 100 100 100 100 100 92
35 26 34 28 22 21 23 20 22 27 34 41 30 37 32 31 27 27 28 28 28 52 64 75 87 97 99 100 91 90 94 94 86 85 88 94 99 98 98 98 100 100 98 92
17 50 44 42 42 20 22 19 22 23 27 28 26 52 34 32 36 31 24 28 27 51 65 74 83 89 98 99 98 95 92 94 85 87 85 99 99 96 99 99 100 100 100 97
16 23 38 43 36 29 20 22 23 26 34 46 31 40 34 37 33 32 27 26 24 40 66 69 81 91 100 99 100 99 99 99 94 92 88 94 99 100 100 100 100 100 100 100
26 27 23 20 24 22 26 36 49 58 70 50 36 50 33 32 28 31 39 35 28 35 71 75 93 96 98 100 100 100 100 98 100 98 92 96 99 100 99 100 100 98 100 100
38 28 26 23 25 30 31 35 57 53 65 55 42 56 40 32 35 39 39 38 40 41 50 72 88 89 95 98 100 99 100 98 100 99 93 95 98 99 100 100 100 100 100 100
50 40 25 21 18 21 26 41 26 38 54 65 57 49 37 41 42 45 49 46 44 69 76 81 87 89 92 95 99 98 100 100 100 99 95 90 89 100 100 100 99 100 100 100
55 64 37 36 23 22 24 25 35 50 50 57 54 54 49 43 46 47 51 53 53 44 68 77 90 91 90 91 96 99 100 100 100 99 96 95 92 91 98 99 100 100 99 99
68 64 53 41 42 39 29 33 38 35 52 47 55 55 44 42 53 49 50 58 58 61 67 73 80 86 89 92 95 99 100 100 98 98 96 94 98 96 93 99 99 99 100 100
77 73 76 51 54 47 48 31 30 54 56 58 56 52 62 53 59 65 68 67 61 54 60 80 76 89 92 94 93 98 99 98 97 96 94 93 91 93 97 99 99 99 100 99
78 88 85 69 60 54 54 44 50 49 55 58 66 63 63 58 61 62 76 78 64 62 62 80 86 92 92 91 90 92 92 90 95 96 98 97 94 91 94 96 95 95 98 96
67 79 94 95 82 64 55 41 61 60 63 69 58 59 74 68 64 63 68 76 72 62 59 64 83 81 86 89 86 86 88 89 86 93 98 99 99 98 94 90 91 91 89 92
74 93 91 74 50 58 68 50 42 66 74 68 53 43 48 65 61 66 64 75 71 70 58 63 67 77 78 82 88 87 84 85 86 89 90 95 98 96 96 96 92 89 89 86
69 95 95 83 60 50 64 61 44 45 64 74 74 38 49 69 60 61 66 77 80 82 71 65 66 72 80 82 83 83 88 86 87 91 92 89 92 97 94 97 95 92 93 95
67 88 93 79 64 60 53 55 46 50 53 63 79 61 67 66 62 65 66 71 74 75 74 71 72 78 79 82 86 85 87 89 91 94 94 92 89 93 96 92 91 92 96 95
56 70 85 87 70 60 48 42 50 67 60 50 62 67 60 58 60 58 63 74 78 76 76 76 78 82 85 87 86 83 76 91 94 92 95 95 93 93 95 95 94 87 96 97
57 73 87 84 80 57 45 57 49 68 74 64 59 68 63 56 66 77 73 78 83 83 79 80 84 89 92 94 94 94 96 99 94 90 90 92 97 98 96 98 100 98 100 100
58 62 77 91 87 85 48 45 45 55 88 62 68 70 60 59 72 75 84 81 84 80 82 82 85 91 94 96 99 99 98 100 100 99 100 86 96 99 99 99 100 100 100 100
82 91 80 95 93 78 57 48 46 65 75 63 62 59 61 67 67 88 86 83 80 84 87 89 89 91 96 94 93 92 98 100 100 100 100 100 93 100 100 100 100 100 100 100
94 84 94 92 92 84 42 52 49 61 51 55 54 57 66 87 96 91 87 89 87 87 86 88 89 92 97 96 96 98 100 100 99 100 100 100 100 100 100 100 100 100 100 100
98 89 75 72 72 51 62 62 61 56 50 56 57 62 83 95 96 92 94 88 86 89 87 88 90 91 96 98 99 99 100 100 99 100 100 100 100 100 100 100 100 100 99 98
100 97 95 64 53 68 71 70 66 67 65 79 83 88 85 94 92 94 92 89 86 87 86 88 90 94 97 98 100 100 100 100 99 100 100 100 99 100 100 100 99 100 100 99
99 100 97 87 87 80 79 86 75 75 78 81 84 87 90 88 89 88 89 88 90 91 91 94 96 98 98 99 100 100 100 100 100 100 100 100 100 100 100 100 100 100 99 96
94 100 100 95 94 94 91 83 76 78 82 80 81 89 88 89 95 92 94 94 92 96 96 97 99 100 100 99 100 100 99 100 98 99 100 100 100 100 100 100 100 97 94 96

GFSCGP_925_rhum_108.txt.gz
RH
22 24 27 24 34 26 32 40 45 38 32 31 37 36 34 29 28 28 27 30 28 28 40 76 80 84 87 86 86 88 89 91 94 99 97 98 100 99 100 100 99 99 100 100
40 34 21 20 29 36 39 38 38 40 34 33 35 34 29 28 27 26 25 25 29 29 52 87 97 100 100 100 98 92 91 93 98 100 90 93 99 95 93 100 100 100 100 100
35 34 29 26 28 29 33 39 40 42 34 34 35 32 22 21 25 25 26 29 31 30 32 77 97 98 100 100 100 98 93 93 98 100 97 100 99 96 100 100 100 100 100 100
33 23 29 37 33 25 28 27 30 36 36 42 33 37 23 24 24 29 30 30 32 32 35 60 92 97 98 99 100 94 89 100 99 100 100 99 97 98 96 98 98 99 100 100
27 35 31 33 32 23 24 21 25 27 37 31 29 34 31 27 30 24 25 32 35 33 35 51 83 87 93 98 98 92 99 100 97 97 85 92 99 95 97 93 99 100 100 100
16 24 34 26 27 25 22 22 24 29 37 48 34 36 37 30 23 33 43 45 52 50 33 56 78 89 97 100 100 100 98 100 95 92 85 96 98 97 99 100 100 100 100 100
18 24 21 23 26 36 30 38 55 61 59 50 32 41 30 28 28 42 49 54 53 67 49 77 91 97 96 98 99 99 99 100 99 92 85 92 99 98 99 98 99 100 100 100
34 30 25 23 28 34 42 40 59 56 73 55 46 49 42 31 39 43 52 59 58 62 68 79 84 93 90 95 98 99 100 99 100 97 88 90 99 99 100 99 97 100 100 100
49 36 25 22 24 25 33 39 33 40 53 59 54 49 41 43 49 53 59 64 63 65 69 77 86 93 88 92 96 96 95 93 98 98 91 86 95 100 99 100 98 98 100 100
63 68 44 34 22 25 30 30 42 49 51 53 51 58 50 50 52 59 65 69 66 64 68 82 87 96 90 96 96 93 94 93 96 99 96 90 88 99 100 100 100 100 98 99
85 67 58 52 40 34 32 38 36 43 55 52 53 54 47 40 54 76 74 68 69 65 73 88 86 94 96 98 94 92 95 96 98 98 99 97 94 93 98 99 99 100 99 100
90 85 71 58 69 61 41 35 35 54 51 61 55 49 72 71 71 71 70 75 68 62 66 74 93 96 97 99 97 92 98 97 99 99 100 99 98 95 92 99 99 99 99 99
99 87 86 74 74 70 59 48 57 36 56 59 71 57 61 70 75 72 80 81 72 60 62 66 79 91 96 98 97 92 94 97 98 99 100 100 100 100 100 95 99 100 100 100
83 99 91 93 86 71 95 56 50 50 52 46 60 79 73 74 78 73 79 83 74 75 72 67 74 80 84 95 96 93 91 87 87 94 99 100 99 98 97 99 99 99 99 100
74 97 87 66 60 63 72 94 66 74 65 53 67 54 48 72 81 76 76 78 76 74 82 75 75 80 80 84 91 94 91 90 88 89 99 100 96 93 94 98 98 97 100 100
72 94 89 75 50 46 77 81 94 57 68 79 73 76 77 74 78 84 85 79 78 78 80 85 82 77 78 82 85 88 89 95 89 88 90 94 99 97 91 91 93 95 96 95
69 94 92 74 72 67 79 74 65 62 56 66 63 69 71 78 80 84 80 80 79 80 77 77 81 89 81 86 88 93 93 92 96 95 93 92 93 99 100 95 92 92 93 93
76 71 89 84 82 55 44 56 52 63 63 55 64 72 72 71 72 81 79 82 84 81 81 81 82 86 88 92 95 99 98 97 97 100 99 94 93 97 99 99 100 97 95 96
74 72 86 90 79 55 51 54 57 65 76 67 71 80 82 87 85 94 85 87 88 84 82 81 86 89 90 93 92 93 96 97 99 100 100 100 99 97 99 100 100 90 97 99
65 67 80 86 76 80 44 46 48 66 92 77 73 72 83 83 93 91 88 82 84 83 86 88 88 88 91 90 92 88 95 99 100 100 99 99 100 100 99 100 100 98 93 94
91 90 83 91 89 68 51 50 53 77 70 71 65 79 82 63 77 91 84 87 86 86 86 89 87 90 91 92 94 96 99 99 100 99 99 100 100 100 97 100 100 100 100 100
94 94 94 89 93 81 41 53 62 68 74 73 60 67 94 96 94 92 89 88 87 87 85 86 86 88 94 95 96 97 99 100 100 100 100 100 100 100 100 100 100 100 100 100
99 96 92 78 72 51 60 69 67 72 57 72 64 90 94 90 92 90 90 85 84 84 85 89 93 91 95 97 98 99 100 99 99 99 99 99 100 100 100 100 100 100 100 100
99 97 98 91 70 84 96 88 81 86 92 91 86 88 89 97 92 92 87 84 85 86 92 95 94 91 93 97 99 100 100 100 100 100 100 100 99 100 100 100 99 99 100 100
94 99 100 91 89 89 89 90 90 84 80 82 84 84 89 91 88 83 86 87 89 95 94 94 96 96 96 99 100 100 100 99 98 99 100 100 100 100 100 100 100 100 99 98
97 100 100 100 99 98 97 86 86 86 84 82 81 90 91 90 92 88 91 91 94 95 95 95 97 100 99 99 100 100 100 98 97 99 100 100 100 100 100 100 100 100 99 96

GFSCGP_925_rhum_111.txt.gz
RH
24 26 25 20 24 21 22 31 32 31 29 30 30 29 26 25 24 25 22 21 19 18 17 26 60 71 79 87 90 92 98 98 97 100 100 100 100 96 100 100 100 100 100 100
34 34 22 18 25 25 25 25 24 23 27 28 27 27 22 22 23 22 21 19 18 18 19 23 51 90 98 95 94 99 99 98 100 100 98 97 99 99 94 99 100 99 98 100
32 26 25 24 23 24 25 27 25 24 25 30 33 26 17 13 19 18 19 19 18 23 24 24 32 70 94 96 98 100 100 99 99 98 98 87 98 100 100 100 99 99 96 100
23 19 26 34 30 22 26 22 24 26 32 29 25 20 18 16 15 23 21 30 38 42 38 30 27 55 84 96 98 99 100 100 100 98 98 92 95 92 99 100 99 98 99 100
23 28 28 29 32 27 29 23 25 26 30 30 23 26 19 23 23 22 42 46 48 54 52 38 29 43 71 90 97 100 100 100 100 100 99 96 96 96 87 86 95 99 100 100
24 18 23 20 21 24 22 23 24 28 28 32 23 23 22 19 19 43 48 50 52 52 57 59 50 61 74 91 99 100 96 100 100 100 100 100 93 94 95 90 98 100 100 100
22 21 16 27 24 26 24 26 34 41 43 38 29 28 20 23 33 45 53 55 56 53 58 63 65 75 80 95 96 98 97 100 100 100 100 97 97 99 95 97 100 100 100 100
46 37 16 14 24 30 30 29 35 37 42 32 31 34 25 23 25 48 54 54 53 54 62 68 69 75 82 91 94 96 96 100 100 100 98 95 98 99 100 100 100 100 100 100
62 31 20 17 19 31 40 39 27 38 49 47 40 34 34 39 52 54 59 57 59 63 73 72 72 78 79 86 94 97 98 97 100 98 96 88 91 97 99 100 100 100 100 100
85 80 39 31 15 19 32 31 45 41 44 48 40 45 31 53 61 59 64 62 60 67 75 78 78 80 82 88 94 96 93 93 98 98 88 89 86 98 100 99 100 100 100 100
100 79 49 45 26 19 22 36 35 34 40 35 35 34 41 43 53 62 65 61 61 66 72 79 85 90 92 94 98 97 93 93 97 99 92 91 90 97 100 100 100 100 100 100
98 97 78 42 71 71 25 23 31 39 44 40 34 34 60 61 60 60 68 60 58 53 62 68 77 89 95 96 96 99 98 99 97 96 98 95 90 92 98 99 100 100 100 100
99 94 88 55 60 59 79 52 41 29 46 37 45 35 64 62 60 69 71 64 62 55 54 58 68 80 85 98 95 97 98 97 98 99 99 96 97 95 94 97 98 100 100 100
96 99 97 73 72 68 81 84 75 55 38 32 40 66 72 67 63 67 73 72 71 60 56 57 65 71 79 89 99 98 96 93 95 100 99 99 99 100 96 92 92 97 99 99
78 96 96 82 55 59 69 77 82 74 56 36 28 40 61 62 64 65 71 69 69 67 66 68 81 81 80 88 90 93 98 99 96 96 98 99 100 100 98 96 94 93 96 99
57 81 85 87 60 45 54 73 73 54 69 65 62 70 72 66 69 73 72 68 76 79 78 79 84 87 86 88 91 88 92 94 100 95 98 97 99 99 100 98 96 95 95 98
72 76 71 58 58 62 57 72 71 59 57 59 58 68 77 84 84 79 76 76 78 75 74 76 79 83 88 94 94 97 95 92 98 100 96 100 100 96 100 100 100 100 99 96
76 72 70 73 65 68 38 56 51 63 66 55 66 73 74 80 82 81 74 77 79 77 76 78 80 80 83 87 93 90 91 94 95 98 100 99 100 100 99 100 100 100 100 100
76 68 76 78 66 47 57 52 55 62 69 64 70 76 81 75 68 89 79 78 80 79 76 79 81 83 83 85 87 88 91 93 95 99 99 99 100 100 100 100 100 99 100 100
70 70 74 62 74 66 46 41 43 56 69 76 69 83 76 72 93 87 85 79 77 75 80 83 83 80 82 86 89 91 93 96 98 100 100 99 99 98 100 100 100 99 97 98
79 83 80 72 72 55 44 44 54 65 74 78 80 84 83 89 84 85 78 78 77 80 80 82 82 83 85 88 88 91 95 98 100 100 100 100 100 98 100 100 100 100 100 100
92 90 83 76 81 67 50 53 70 74 75 66 68 72 85 91 88 85 81 83 81 77 79 84 86 85 88 92 91 91 95 98 100 100 100 100 100 100 100 100 100 100 100 100
94 96 92 70 59 59 80 88 79 77 71 76 79 84 87 90 88 82 83 81 80 80 84 88 85 85 88 91 97 97 98 98 99 99 100 99 99 99 99 100 100 100 100 100
84 90 100 96 74 82 92 86 84 81 87 86 83 83 81 88 85 84 79 79 79 88 87 88 86 86 89 91 95 99 100 98 98 99 100 100 100 100 100 99 100 100 100 100
96 99 100 91 78 89 94 91 79 78 80 77 81 81 82 79 81 79 82 82 86 86 85 87 89 91 91 92 96 100 100 98 97 100 100 100 100 100 100 100 100 100 99 97
99 100 97 99 100 100 99 96 95 95 90 80 80 88 84 80 85 83 84 85 85 86 86 86 96 96 91 92 98 100 100 99 96 97 99 100 100 100 100 100 100 100 100 100

GFSCGP_925_rhum_114.txt.gz
RH
16 20 12 8 9 10 13 13 14 12 12 21 20 18 16 14 15 17 18 17 16 15 13 12 12 18 37 41 46 56 67 76 99 100 100 100 99 98 98 98 98 99 100 100
14 20 11 7 7 9 15 15 14 11 10 16 17 15 12 11 13 15 16 15 13 12 12 11 12 24 45 45 54 59 64 73 100 99 96 93 99 99 99 98 98 98 99 100
19 11 9 11 16 15 15 15 13 14 12 12 15 17 14 11 10 11 11 11 10 11 11 15 16 20 36 51 58 60 63 72 96 88 95 86 87 98 95 100 100 99 99 100
20 13 12 11 18 14 17 11 14 16 18 19 13 18 10 13 12 11 11 12 15 19 23 22 20 18 28 51 64 69 66 73 82 82 83 76 74 74 84 86 94 98 100 100
26 18 17 17 13 14 17 12 17 20 20 20 17 19 12 10 11 13 13 20 28 31 33 33 28 22 24 52 72 88 84 83 85 80 73 73 66 69 76 80 85 95 100 99
25 19 19 18 14 11 15 20 19 18 19 26 18 18 13 10 14 13 30 33 38 36 36 36 37 33 34 62 84 95 89 89 94 86 77 73 73 81 84 82 90 95 100 99
35 19 16 17 21 14 15 22 22 25 27 23 12 18 15 11 19 22 34 40 39 38 42 40 40 42 44 63 84 96 84 90 100 97 85 79 83 88 84 82 80 94 99 99
66 42 19 16 20 16 17 20 20 22 21 19 18 24 16 12 15 34 39 40 40 43 48 47 49 52 56 74 79 92 85 91 98 92 86 88 87 83 82 75 80 99 99 100
85 61 20 18 15 14 16 21 14 14 14 22 16 19 13 17 14 37 41 42 46 50 54 55 56 60 64 74 81 91 90 87 94 82 82 81 84 82 77 81 96 97 100 99
92 85 32 30 13 14 13 14 20 15 24 22 13 16 19 24 31 39 44 45 50 54 60 66 64 67 72 77 83 91 93 88 91 82 82 79 80 81 83 94 100 99 100 100
94 98 45 32 19 15 21 26 19 14 18 18 20 18 16 28 34 42 44 45 49 54 57 63 75 83 86 89 89 94 96 93 91 88 87 82 84 83 93 97 100 99 100 100
88 98 76 47 46 33 14 22 21 26 23 20 19 18 34 30 34 41 46 44 45 49 52 56 63 80 88 93 93 96 97 94 93 94 89 88 86 87 97 99 99 100 100 100
66 85 61 49 52 73 69 18 22 24 19 23 30 20 39 42 40 44 47 48 44 45 46 46 50 60 84 92 96 97 99 96 96 92 94 90 89 90 87 96 100 100 100 100
52 98 96 92 95 65 91 88 48 22 31 26 21 19 44 43 49 49 50 51 45 43 45 50 56 64 78 90 93 97 100 97 95 96 93 92 86 85 83 85 98 99 100 100
52 69 78 66 60 39 57 77 82 58 28 29 20 17 24 35 45 52 50 50 52 51 57 57 63 73 78 85 92 94 97 99 97 92 91 85 87 86 89 92 93 98 100 99
52 68 57 54 58 42 42 60 51 56 56 32 27 20 16 28 41 51 50 50 56 57 57 59 60 61 74 91 89 94 96 96 100 99 88 86 91 89 91 93 96 97 98 98
70 58 54 52 40 53 58 60 47 44 42 46 49 32 45 41 52 57 55 57 59 59 59 60 59 59 62 80 98 98 99 96 97 99 99 94 92 95 90 91 94 95 99 99
74 61 51 57 42 80 46 44 40 43 42 44 40 48 66 71 78 72 64 63 62 60 60 60 57 58 62 66 85 91 98 98 94 93 98 99 100 99 93 96 91 90 94 99
61 64 57 60 53 32 56 42 56 60 54 58 48 62 77 71 64 77 63 60 62 61 59 60 61 60 62 68 77 86 88 94 93 97 96 100 99 100 100 97 97 92 92 96
53 62 65 50 58 55 50 35 34 48 92 63 56 64 65 56 75 89 70 59 59 56 60 61 62 61 64 68 73 85 90 90 94 98 100 100 100 99 100 99 99 94 92 95
58 63 66 55 54 38 45 45 40 79 87 75 70 79 67 74 93 88 66 62 59 60 62 62 64 62 67 71 71 74 85 91 94 97 99 99 100 99 100 100 99 100 100 100
79 74 69 59 65 59 46 47 70 66 63 88 79 78 77 81 83 74 66 67 64 59 62 64 61 65 68 72 75 73 81 88 95 96 95 97 99 99 100 100 100 100 100 100
84 97 96 64 49 44 52 74 79 73 76 84 69 65 74 78 73 69 74 71 69 66 66 66 63 64 69 72 77 77 89 88 92 94 97 99 100 100 100 100 100 100 100 100
67 58 95 95 91 97 94 84 74 75 83 86 71 70 69 71 69 63 58 60 63 69 67 66 65 66 67 72 77 83 87 88 90 93 98 100 100 100 100 100 100 99 100 100
89 99 96 89 84 94 94 95 94 90 84 75 64 62 62 62 65 64 66 66 68 68 67 70 74 71 68 73 78 84 86 88 91 97 98 99 100 100 100 100 100 100 100 98
99 100 94 97 100 99 99 100 97 96 100 98 70 72 67 65 69 67 71 72 71 72 73 76 79 78 76 76 81 88 92 92 91 93 97 99 98 99 98 99 100 100 100 100

GFSCGP_925_rhum_117.txt.gz
RH
13 13 16 9 8 8 9 10 11 12 9 11 12 12 11 12 12 13 14 14 14 14 12 12 12 12 12 13 23 28 33 51 66 75 77 87 86 95 97 97 97 97 90 97
15 16 9 6 8 7 6 9 12 8 7 8 9 12 14 12 10 10 12 12 13 14 13 12 12 12 13 16 30 33 39 50 64 81 91 88 79 84 82 84 87 99 99 100
16 13 10 11 10 9 9 8 9 9 8 8 10 11 10 9 9 8 8 8 10 11 12 10 10 11 13 24 32 38 41 48 64 89 90 75 76 87 89 93 91 93 100 97
20 16 14 13 12 9 13 8 9 8 10 12 10 14 9 8 8 8 8 9 9 8 8 9 10 13 15 21 33 40 41 47 77 92 79 67 72 82 81 77 86 92 94 99
30 22 20 16 14 10 9 8 11 10 12 14 11 10 8 7 9 9 9 8 9 13 16 18 17 16 16 17 35 47 45 48 79 81 68 69 60 66 64 64 69 86 96 100
22 18 22 19 16 14 13 11 12 14 14 23 15 12 9 8 9 10 12 13 17 23 24 22 22 28 22 36 48 61 54 51 68 73 67 67 61 57 56 62 66 79 85 90
29 24 18 18 20 16 16 18 20 28 26 25 12 12 11 8 7 8 17 24 27 28 29 28 28 30 26 40 59 73 73 60 74 76 70 65 63 60 61 63 66 74 82 97
41 48 27 39 38 21 18 18 22 30 26 19 9 12 9 7 7 12 20 26 29 30 34 35 37 39 41 49 60 79 80 80 90 81 71 67 67 66 66 68 63 70 79 91
69 52 36 28 26 28 17 19 13 20 15 17 11 9 9 8 9 22 28 28 32 35 38 41 46 50 54 59 66 77 83 90 94 91 79 71 70 67 68 68 70 73 81 96
68 88 38 33 46 31 16 12 20 19 28 23 12 12 12 12 14 22 26 31 37 42 48 53 55 60 64 68 76 83 87 90 90 88 77 72 71 69 70 74 81 86 99 99
51 91 50 54 56 28 17 17 12 15 18 22 18 13 9 10 12 17 24 32 38 43 46 54 65 72 83 82 80 85 89 92 90 84 76 68 66 71 75 78 84 93 98 99
75 88 72 54 46 50 36 14 13 19 21 15 14 14 16 12 17 19 35 34 39 42 45 49 59 70 81 92 89 88 93 98 92 84 81 74 71 73 78 82 86 98 99 100
52 65 80 42 58 56 55 23 14 15 14 16 23 16 21 18 27 36 40 37 39 40 40 44 48 59 75 87 92 99 98 96 92 89 84 80 80 78 80 84 93 99 99 100
47 64 81 90 87 62 95 67 26 21 31 18 16 12 48 22 21 40 39 37 37 37 42 47 54 59 67 84 91 94 97 99 98 90 84 81 87 83 80 82 89 99 99 100
43 68 56 43 33 41 51 70 41 42 45 33 21 15 23 26 29 36 38 40 40 47 48 48 55 61 64 78 90 94 97 94 99 98 89 88 84 84 81 80 82 92 99 100
45 61 46 43 41 41 60 74 65 37 30 24 21 24 16 34 35 32 38 40 52 50 49 49 49 51 59 73 88 95 98 100 93 97 100 78 78 81 78 78 85 91 94 100
60 60 56 47 35 59 84 63 55 59 56 34 38 26 36 22 66 41 45 56 59 49 49 49 48 49 50 62 86 97 99 100 96 96 96 98 89 88 88 79 80 83 89 88
56 64 49 50 45 89 63 33 51 50 42 47 54 66 63 58 75 68 63 62 56 51 49 48 46 46 49 53 62 78 96 100 100 99 98 98 100 100 94 90 82 80 84 89
41 57 63 54 49 49 53 38 37 45 51 55 47 51 71 68 59 71 56 55 52 50 48 47 48 49 50 53 58 63 75 95 99 99 100 99 100 100 99 99 92 82 82 89
39 52 61 49 48 62 48 37 30 35 75 66 76 70 74 67 85 92 56 49 47 45 48 48 48 50 53 55 56 60 70 81 97 100 99 98 100 100 99 100 100 98 86 84
54 56 60 49 54 34 42 41 41 80 98 77 96 80 86 93 95 81 58 51 46 48 51 49 50 51 54 57 56 56 65 76 88 100 98 100 99 99 99 99 100 100 100 95
62 79 84 57 52 61 61 52 92 93 78 90 91 83 75 67 71 73 67 56 51 49 50 49 49 53 55 56 57 57 68 76 85 94 99 97 100 100 100 100 100 100 100 100
87 80 88 76 72 81 83 94 80 77 91 95 93 74 72 75 69 64 58 52 51 50 49 50 50 53 57 59 62 62 74 78 85 90 95 100 100 98 100 99 100 100 100 100
56 62 77 66 68 90 93 94 91 91 93 93 76 64 62 61 55 54 56 54 51 53 53 55 55 53 56 60 64 69 77 81 88 92 95 98 99 100 99 100 100 100 100 100
78 96 84 63 61 70 69 98 99 91 95 95 94 55 55 56 58 54 57 58 56 57 58 61 62 61 60 64 69 77 82 84 88 95 96 97 99 100 100 100 100 100 100 99
90 97 89 90 100 99 88 96 100 96 98 99 96 74 55 54 59 60 68 74 73 71 72 74 74 72 72 73 81 88 92 92 89 92 95 98 96 97 98 99 100 100 100 99

GFSCGP_925_rhum_123.txt.gz
RH
18 23 26 20 19 18 19 20 18 14 10 10 10 9 8 9 11 12 15 15 17 19 17 12 12 12 11 10 12 51 65 70 84 93 97 92 85 82 87 91 85 89 96 96
23 29 21 20 20 22 22 23 22 16 12 11 10 10 8 8 9 10 10 10 13 18 17 16 18 16 14 12 14 39 62 70 80 85 90 93 91 88 83 89 78 79 87 91
30 28 19 20 21 25 27 27 26 24 18 15 13 12 9 8 10 8 8 8 9 13 12 16 18 20 20 19 24 34 52 62 72 82 89 85 87 92 90 86 78 88 84 88
28 23 20 23 24 22 27 24 27 29 34 30 16 20 12 10 11 9 8 8 8 8 8 11 16 20 20 18 24 28 37 54 67 75 84 81 86 96 93 88 84 81 88 91
32 30 27 26 25 23 35 31 34 37 43 35 25 21 13 10 10 9 8 8 8 8 8 10 15 19 14 15 29 27 30 49 65 72 78 82 85 86 86 84 80 81 86 90
35 24 22 24 23 26 28 43 43 40 43 50 29 28 16 13 9 8 7 7 8 6 8 11 20 24 43 29 41 35 33 40 59 66 80 83 83 79 84 89 85 86 85 87
39 32 28 22 32 29 36 67 85 69 56 48 25 28 20 14 9 8 9 10 30 26 31 43 52 58 75 78 66 60 62 75 74 73 82 83 77 74 79 76 83 88 96 97
65 69 34 26 32 40 44 49 76 94 63 47 23 31 19 12 10 9 9 32 39 50 59 66 70 71 74 82 74 68 66 77 90 88 84 81 77 76 79 82 85 89 88 92
65 53 30 27 30 51 90 93 64 91 66 60 35 26 17 10 10 10 11 33 48 63 68 76 76 74 76 81 79 77 73 82 82 90 88 84 81 78 78 73 77 81 79 74
54 63 32 34 33 42 56 71 88 64 66 56 43 35 27 19 16 11 20 45 72 80 83 82 83 85 90 91 84 80 82 90 89 86 87 87 78 77 72 74 69 74 76 73
47 71 53 45 48 50 61 83 92 93 56 50 50 37 18 21 19 28 29 61 80 86 85 85 87 87 92 94 95 96 96 93 91 94 90 90 84 82 76 72 69 72 76 80
47 72 72 50 37 34 46 50 79 96 91 69 39 32 13 15 44 49 46 79 85 86 80 81 81 84 90 93 96 99 100 99 99 99 93 90 92 85 81 75 74 75 74 86
46 69 89 55 42 47 54 46 38 65 79 74 61 36 16 39 65 84 83 84 78 71 74 76 80 83 87 93 96 98 99 100 99 100 98 98 95 90 83 77 77 85 83 86
45 73 94 94 77 61 70 50 41 56 97 58 44 45 47 59 78 81 90 89 85 83 80 74 78 85 88 93 97 99 100 100 99 98 100 100 97 91 85 85 85 92 92 92
47 72 64 60 56 52 50 49 91 98 80 70 58 63 64 79 87 86 88 89 87 79 75 76 75 80 85 91 96 98 99 100 99 96 97 98 98 99 93 91 92 88 87 87
44 70 59 68 53 50 48 89 94 97 96 77 73 74 80 79 81 84 82 85 92 64 58 56 60 70 79 87 94 94 99 98 99 100 98 95 97 95 95 96 90 90 89 91
54 60 66 76 58 56 92 99 94 100 95 95 98 96 76 79 85 89 90 89 89 84 53 53 55 59 69 84 88 94 96 95 98 99 100 100 95 98 98 97 98 92 93 95
51 55 62 77 68 85 82 50 57 86 98 100 96 95 85 88 88 87 87 89 86 83 60 54 56 56 58 64 75 82 86 92 96 100 100 100 100 99 96 97 98 100 99 95
69 82 89 90 89 57 81 67 77 83 98 92 100 97 94 77 68 68 57 58 60 53 52 53 54 56 57 60 66 73 81 86 91 97 100 100 100 100 100 92 97 100 99 100
44 75 84 85 93 95 94 76 67 48 95 95 100 100 98 89 96 98 56 51 50 50 50 52 55 58 60 61 67 73 79 84 89 95 100 99 99 100 100 100 96 100 99 99
77 80 86 88 85 95 85 74 60 76 98 96 99 98 100 98 99 91 65 48 48 48 52 55 57 60 63 65 74 76 78 86 91 95 98 97 97 100 100 100 99 99 99 99
95 97 94 88 90 89 85 68 91 100 98 100 99 97 96 89 88 85 77 62 53 54 54 54 60 64 69 76 77 77 81 89 93 96 98 99 98 100 100 100 100 98 100 100
93 97 96 96 97 99 89 90 94 99 100 100 99 99 95 84 80 73 70 63 63 64 63 62 63 70 77 81 82 87 92 91 95 97 100 100 99 99 97 98 100 98 99 99
59 66 92 86 96 87 88 78 82 98 100 98 99 95 95 94 95 76 72 77 74 73 74 73 73 76 81 83 90 97 98 92 96 98 99 100 100 100 100 97 100 97 98 99
84 80 86 80 74 72 84 88 84 90 97 96 97 96 97 97 86 76 79 76 79 79 81 84 83 82 85 89 95 100 100 95 96 99 99 99 100 100 100 100 100 100 100 98
88 85 91 91 90 91 84 94 87 84 99 96 96 96 96 87 86 81 84 87 85 87 88 86 87 89 91 94 100 100 99 98 97 97 99 100 99 98 98 98 100 100 100 96